Regional Weather Roundup
Issued by NWS

Home | Current Version | Previous Version | Graphics & Text | Print | Product List | Glossary On
Versions: 1 2 3 4 5 6 7 8 9 10 11 12 13 14 15 16 17 18 19 20 21 22 23 24 25 26 27 28 29 30 31 32 33 34 35 36 37 38 39 40 41 42 43 44 45 46 47 48 49 50
000
ASUS43 KIND 212100
RWRIN

WEATHER ROUNDUP FOR INDIANA
NATIONAL WEATHER SERVICE INDIANAPOLIS IN
500 PM EDT FRI JUL 21 2017

NOTE: "FAIR" INDICATES FEW OR NO CLOUDS BELOW 12,000 FEET WITH NO
SIGNIFICANT WEATHER AND/OR OBSTRUCTIONS TO VISIBILITY.

* - STATION DOES NOT REPORT WEATHER SUCH AS PRECIPITATION OR FOG.

+ - STATION NOT QUALITY CONTROLLED BY THE NATIONAL WEATHER SERVICE.
    USE DATA WITH CAUTION...ESPECIALLY DEWPOINT AND RELATIVE
    HUMIDITY OBSERVATIONS.

INZ001>003-010>013-019-020-212200-
NORTHWEST INDIANA

CITY           SKY/WX    TMP DP  RH WIND       PRES   REMARKS
GARY /AIRPORT/ PTSUNNY   88  68  51 SE8       29.95F
MICHIGAN CITY+ MOSUNNY   86  70  58 S6        29.96F
MONTICELLO +   MOSUNNY   84  74  72 SE3       29.96F
RENSSELAER +   MOSUNNY   86  72  62 S5        29.96F

$$

LMZ046-743>745-212200-
SOUTHERN LAKE MICHIGAN

STATION/POSITION TIME  TEMP    WIND        PRES    WAVE
                       AIR SEA DIR/SP/G            HT
                 (UTC) (F)     (DEG/KT/KT) (MB)    (FT)
BURNS HARBOR     2040   81     340/  3/  5 1014.2F
MICHIGAN CITY    2030   78      30/  7/  8   N/A
5NW MICH CITY    2050   78 78   50/  4/  6   N/A     0

$$

INZ004-005-014>016-021>024-212200-
NORTH CENTRAL INDIANA

CITY           SKY/WX    TMP DP  RH WIND       PRES   REMARKS
ELKHART        SUNNY     86  66  51 S9        29.97F
GOSHEN         SUNNY     87  66  49 S6        29.97F
SOUTH BEND     SUNNY     86  66  51 SW5       29.97F

$$

INZ006>009-017-018-025>027-212200-
NORTHEAST INDIANA

CITY           SKY/WX    TMP DP  RH WIND       PRES   REMARKS
FORT WAYNE     CLOUDY    84  69  60 SW10      29.99F
KENDALLVILLE + SUNNY     87  70  57 SW6       29.98F

$$

INZ028-029-035-036-043>045-051>053-212200-
WEST CENTRAL INDIANA

CITY           SKY/WX    TMP DP  RH WIND       PRES   REMARKS
LAFAYETTE      SUNNY     86  75  69 E3        29.95F HX  95
TERRE HAUTE    MOSUNNY   86  75  69 E10       29.96F HX  95

$$

INZ030>032-037>040-046>048-054>057-064-065-212200-
CENTRAL INDIANA

CITY           SKY/WX    TMP DP  RH WIND       PRES   REMARKS
COLUMBUS       MOSUNNY   91  66  43 SW6       29.97F
GREENWOOD *+   MOSUNNY   87  70  56 CALM      29.99F
INDIANAPOLIS   PTSUNNY   86  72  62 SW5       29.96F
-EAGLE CREEK   CLOUDY    87  72  60 NW5       29.97F
KOKOMO +       CLOUDY    82  73  74 SE7       29.99F
MT COMFORT *+  MOSUNNY   84  72  65 E5        30.00F
SHELBYVILLE    MOSUNNY   90  71  53 CALM      29.97F HX  96

$$

INZ033-034-041-042-049-050-058-059-212200-
EAST CENTRAL INDIANA

CITY           SKY/WX    TMP DP  RH WIND       PRES   REMARKS
MUNCIE         CLOUDY    85  74  69 VRB5      30.00F
RICHMOND +     MOSUNNY   82  72  69 CALM      30.02F

$$

INZ060-061-067>069-081>083-085>088-212200-
SOUTHWEST INDIANA

CITY           SKY/WX    TMP DP  RH WIND       PRES   REMARKS
EVANSVILLE     SUNNY     96  73  47 SW8       29.94F HX 105
HUNTINGBURG *+ MOSUNNY   95  78  58 SW7       29.96F HX 111

$$

INZ062-063-066-070>080-084-089>092-212200-
SOUTH CENTRAL AND SOUTHEAST INDIANA

CITY           SKY/WX    TMP DP  RH WIND       PRES   REMARKS
BLOOMINGTON    PTSUNNY   92  74  55 S5        29.97F HX 101
MADISON *+     SUNNY     93  70  46 SW6       30.00F HX  99
SEYMOUR +      SUNNY     95  73  49 SW8       29.96F HX 105

$$




USA.gov is the U.S. government's official web portal to all federal, state and local government web resources and services.